• En España
  • Lista de países
  • Para 7 días
  • Temperatura del agua
  • Mapa Satelital
  • El tiempo en el mapa
  • Informadores
  • user-avatar
    Iniciar sesión

    Tiempo cada hora Kitzbuel

    Hoy, 24 Agosto, Jueves

    Tiempo Temperatura Precipitaciones Viento Presión Humedad
    00:00 +13°C° 0 mm 2 mps 679 mmHg 79%
    01:00 +14°C° 0 mm 2 mps 679 mmHg 73%
    02:00 +14°C° 0 mm 2 mps 679 mmHg 72%
    03:00 +14°C° 0 mm 2 mps 679 mmHg 71%
    04:00 +13°C° 0 mm 2 mps 679 mmHg 70%
    05:00 +15°C° 0 mm 2 mps 679 mmHg 69%
    06:00 +16°C° 0 mm 2 mps 680 mmHg 68%
    07:00 +17°C° 0 mm 2 mps 680 mmHg 67%
    08:00 +21°C° 0 mm 1 mps 680 mmHg 59%
    09:00 +23°C° 0 mm 1 mps 681 mmHg 51%
    10:00 +26°C° 0 mm 1 mps 682 mmHg 43%
    11:00 +27°C° 0 mm 1 mps 682 mmHg 42%
    12:00 +28°C° 0 mm 1 mps 682 mmHg 40%
    13:00 +28°C° 0 mm 2 mps 682 mmHg 39%
    14:00 +28°C° 0 mm 2 mps 682 mmHg 44%
    15:00 +27°C° 0 mm 2 mps 681 mmHg 49%
    16:00 +26°C° 0 mm 2 mps 681 mmHg 54%
    17:00 +24°C° 1,2 mm 1 mps 681 mmHg 65%
    18:00 +22°C° 1,2 mm 1 mps 681 mmHg 76%
    19:00 +20°C° 1,2 mm 1 mps 680 mmHg 87%
    20:00 +19°C° 0,1 mm 1 mps 681 mmHg 87%
    21:00 +18°C° 0,1 mm 1 mps 681 mmHg 88%
    22:00 +16°C° 0,1 mm 1 mps 681 mmHg 89%
    23:00 +16°C° 0,1 mm 1 mps 681 mmHg 88%

    Mañana, 25 Agosto, Viernes

    Tiempo Temperatura Precipitaciones Viento Presión Humedad
    00:00 +16°C° 0,1 mm 1 mps 681 mmHg 87%
    01:00 +15°C° 0,1 mm 1 mps 681 mmHg 86%
    02:00 +15°C° 0 mm 1 mps 680 mmHg 85%
    03:00 +15°C° 0 mm 1 mps 680 mmHg 84%
    04:00 +14°C° 0 mm 2 mps 680 mmHg 83%
    05:00 +15°C° 0 mm 1 mps 680 mmHg 80%
    06:00 +16°C° 0 mm 1 mps 681 mmHg 77%
    07:00 +18°C° 0 mm 1 mps 681 mmHg 75%
    08:00 +21°C° 0 mm 1 mps 681 mmHg 65%
    09:00 +24°C° 0 mm 1 mps 682 mmHg 55%
    10:00 +25°C° 0 mm 0 mps 682 mmHg 46%
    11:00 +25°C° 0 mm 0 mps 682 mmHg 44%
    12:00 +28°C° 0 mm 1 mps 682 mmHg 42%
    13:00 +29°C° 0 mm 1 mps 682 mmHg 41%
    14:00 +28°C° 0,1 mm 1 mps 682 mmHg 45%
    15:00 +28°C° 0,1 mm 1 mps 682 mmHg 48%
    16:00 +27°C° 0,1 mm 1 mps 681 mmHg 52%
    17:00 +25°C° 0,7 mm 1 mps 681 mmHg 63%
    18:00 +20°C° 0,7 mm 0 mps 680 mmHg 74%
    19:00 +18°C° 0,7 mm 0 mps 680 mmHg 84%
    20:00 +19°C° 0,3 mm 1 mps 680 mmHg 85%
    21:00 +19°C° 0,3 mm 1 mps 680 mmHg 85%
    22:00 +17°C° 0,3 mm 2 mps 681 mmHg 85%
    23:00 +17°C° 0 mm 2 mps 680 mmHg 84%

    Pasado mañana, 26 Agosto, Sábado

    Tiempo Temperatura Precipitaciones Viento Presión Humedad
    00:00 +17°C° 0 mm 2 mps 680 mmHg 84%
    01:00 +18°C° 0 mm 1 mps 680 mmHg 83%
    02:00 +16°C° 0 mm 1 mps 680 mmHg 81%
    03:00 +16°C° 0 mm 1 mps 680 mmHg 80%
    04:00 +16°C° 0 mm 1 mps 680 mmHg 78%
    05:00 +18°C° 0 mm 1 mps 680 mmHg 75%
    06:00 +19°C° 0 mm 1 mps 680 mmHg 72%
    07:00 +20°C° 0 mm 1 mps 681 mmHg 69%
    08:00 +23°C° 0 mm 1 mps 681 mmHg 60%
    09:00 +25°C° 0 mm 1 mps 682 mmHg 51%
    10:00 +26°C° 0 mm 0 mps 682 mmHg 42%
    11:00 +29°C° 0 mm 1 mps 682 mmHg 41%
    12:00 +29°C° 0 mm 1 mps 682 mmHg 39%
    13:00 +30°C° 0 mm 1 mps 682 mmHg 38%
    14:00 +29°C° 0,1 mm 2 mps 681 mmHg 42%
    15:00 +29°C° 0,1 mm 2 mps 681 mmHg 47%
    16:00 +28°C° 0,1 mm 2 mps 681 mmHg 51%
    17:00 +26°C° 0,8 mm 1 mps 681 mmHg 61%
    18:00 +24°C° 0,8 mm 1 mps 680 mmHg 70%
    19:00 +19°C° 0,8 mm 0 mps 680 mmHg 80%
    20:00 +21°C° 0,3 mm 1 mps 680 mmHg 80%
    21:00 +20°C° 0,3 mm 1 mps 680 mmHg 81%
    22:00 +20°C° 0,3 mm 1 mps 680 mmHg 81%
    23:00 +19°C° 0 mm 1 mps 680 mmHg 81%

    27 Agosto, Domingo

    Tiempo Temperatura Precipitaciones Viento Presión Humedad
    00:00 +18°C° 0 mm 1 mps 680 mmHg 81%
    01:00 +18°C° 0 mm 1 mps 680 mmHg 81%
    02:00 +18°C° 0 mm 1 mps 679 mmHg 79%
    03:00 +16°C° 0 mm 1 mps 679 mmHg 78%
    04:00 +16°C° 0 mm 1 mps 679 mmHg 77%
    05:00 +18°C° 0 mm 1 mps 679 mmHg 75%
    06:00 +19°C° 0 mm 1 mps 680 mmHg 74%
    07:00 +20°C° 0 mm 1 mps 680 mmHg 72%
    08:00 +23°C° 0 mm 1 mps 680 mmHg 63%
    09:00 +25°C° 0 mm 1 mps 681 mmHg 54%
    10:00 +26°C° 0 mm 0 mps 681 mmHg 45%
    11:00 +29°C° 0 mm 1 mps 681 mmHg 43%
    12:00 +29°C° 0 mm 1 mps 681 mmHg 41%
    13:00 +30°C° 0 mm 1 mps 681 mmHg 39%
    14:00 +29°C° 0 mm 1 mps 680 mmHg 43%
    15:00 +29°C° 0 mm 1 mps 680 mmHg 46%
    16:00 +28°C° 0 mm 1 mps 680 mmHg 50%
    17:00 +26°C° 0,8 mm 1 mps 679 mmHg 60%
    18:00 +21°C° 0,8 mm 0 mps 679 mmHg 71%
    19:00 +19°C° 0,8 mm 0 mps 679 mmHg 81%
    20:00 +21°C° 1,1 mm 1 mps 679 mmHg 83%
    21:00 +20°C° 1,1 mm 1 mps 679 mmHg 85%
    22:00 +20°C° 1,1 mm 1 mps 680 mmHg 86%
    23:00 +19°C° 0,5 mm 1 mps 680 mmHg 88%

    28 Agosto, Lunes

    Tiempo Temperatura Precipitaciones Viento Presión Humedad
    00:00 +19°C° 0,5 mm 1 mps 680 mmHg 89%
    01:00 +18°C° 0,5 mm 1 mps 679 mmHg 90%
    02:00 +16°C° 0,2 mm 1 mps 679 mmHg 91%
    03:00 +16°C° 0,2 mm 1 mps 679 mmHg 91%
    04:00 +16°C° 0,2 mm 1 mps 679 mmHg 91%
    05:00 +16°C° 0,1 mm 1 mps 680 mmHg 89%
    06:00 +18°C° 0,1 mm 1 mps 680 mmHg 88%
    07:00 +18°C° 0,1 mm 1 mps 680 mmHg 86%
    08:00 +20°C° 0,2 mm 1 mps 681 mmHg 80%
    09:00 +22°C° 0,2 mm 1 mps 681 mmHg 73%
    10:00 +24°C° 0,2 mm 2 mps 681 mmHg 67%
    11:00 +24°C° 0,3 mm 2 mps 681 mmHg 65%
    12:00 +25°C° 0,3 mm 2 mps 681 mmHg 62%
    13:00 +26°C° 0,3 mm 2 mps 681 mmHg 60%
    14:00 +25°C° 0,3 mm 2 mps 681 mmHg 61%
    15:00 +25°C° 0,3 mm 2 mps 681 mmHg 62%
    16:00 +25°C° 0,3 mm 2 mps 681 mmHg 63%
    17:00 +23°C° 0,1 mm 1 mps 680 mmHg 72%
    18:00 +21°C° 0,1 mm 1 mps 680 mmHg 81%
    19:00 +19°C° 0,1 mm 1 mps 680 mmHg 90%
    20:00 +18°C° 0 mm 1 mps 680 mmHg 91%
    21:00 +18°C° 0 mm 1 mps 680 mmHg 92%
    22:00 +16°C° 0 mm 1 mps 680 mmHg 94%
    23:00 +16°C° 0 mm 1 mps 680 mmHg 94%

    29 Agosto, Martes

    Tiempo Temperatura Precipitaciones Viento Presión Humedad
    00:00 +15°C° 0 mm 1 mps 680 mmHg 94%
    01:00 +15°C° 0 mm 1 mps 680 mmHg 94%
    02:00 +15°C° 0 mm 1 mps 680 mmHg 93%
    03:00 +15°C° 0 mm 1 mps 680 mmHg 92%
    04:00 +14°C° 0 mm 1 mps 679 mmHg 92%
    05:00 +15°C° 0 mm 1 mps 680 mmHg 89%
    06:00 +16°C° 0 mm 1 mps 680 mmHg 86%
    07:00 +18°C° 0 mm 1 mps 680 mmHg 83%
    08:00 +21°C° 0 mm 1 mps 680 mmHg 73%
    09:00 +23°C° 0 mm 1 mps 681 mmHg 62%
    10:00 +24°C° 0 mm 0 mps 681 mmHg 52%
    11:00 +27°C° 0 mm 1 mps 681 mmHg 48%
    12:00 +27°C° 0 mm 1 mps 681 mmHg 44%
    13:00 +28°C° 0 mm 1 mps 681 mmHg 41%
    14:00 +28°C° 0 mm 1 mps 680 mmHg 43%
    15:00 +27°C° 0 mm 1 mps 680 mmHg 46%
    16:00 +27°C° 0 mm 1 mps 680 mmHg 49%
    17:00 +24°C° 0 mm 1 mps 679 mmHg 62%
    18:00 +22°C° 0 mm 1 mps 679 mmHg 75%
    19:00 +17°C° 0 mm 0 mps 679 mmHg 87%
    20:00 +19°C° 0 mm 1 mps 679 mmHg 87%
    21:00 +18°C° 0 mm 1 mps 679 mmHg 87%
    22:00 +18°C° 0 mm 1 mps 679 mmHg 87%
    23:00 +18°C° 0 mm 1 mps 679 mmHg 86%
    Mostrar más